This demonstration page uses our WeatherBlox Daily Observations layout. Learn more.

36.17497, -115.13722

Hourly Observations for July 3, 2015

Temp ( °F °C ) Dew Point ( °F °C ) Humidity (%) Winds ( mph kmh ) Pressure ( in mb ) Visibility ( mi km ) Precip ( " mm )
12:53 am 00:53 Clear 93 34 54 12 26 26 N 7 11 29.65 1004 10 16.09344 0 0
1:53 am 01:53 Clear 91 33 54 12 28 28 W 6 9 29.65 1004 10 16.09344 0 0
2:53 am 02:53 Clear 90 32 55 13 31 31 Calm 29.65 1004 10 16.09344 0 0
3:53 am 03:53 Clear 90 32 54 12 29 29 SSE 3 6 29.65 1004 10 16.09344 0 0
4:53 am 04:53 Clear 88 31 54 12 31 31 ENE 6 9 29.65 1004 10 16.09344 0 0
5:53 am 05:53 Sunny 88 31 55 13 33 33 Calm 29.71 1006 10 16.09344 0 0
6:53 am 06:53 Sunny 88 31 54 12 31 31 Calm 29.74 1007 10 16.09344 0 0
7:53 am 07:53 Sunny 91 33 54 12 28 28 Calm 29.71 1006 10 16.09344 0 0
8:53 am 08:53 Sunny 93 34 54 12 26 26 Calm 29.71 1006 10 16.09344 0 0
9:53 am 09:53 Sunny 99 37 55 13 24 24 N 3 6 29.68 1005 10 16.09344 0 0
10:53 am 10:53 Sunny 100 38 54 12 21 21 S 8 13 29.68 1005 10 16.09344 0 0
11:53 am 11:53 Sunny 100 38 54 12 21 21 SSE 8 13 29.68 1005 10 16.09344 0 0
12:53 pm 12:53 Sunny 102 39 52 11 18 18 N 5 7 29.62 1003 10 16.09344 0 0
1:53 pm 13:53 Sunny 106 41 48 9 14 14 N 7 11 29.59 1002 10 16.09344 0 0
2:53 pm 14:53 Sunny 106 41 43 6 12 12 S 6 9 29.56 1001 10 16.09344 0 0
3:53 pm 15:53 Sunny 106 41 46 8 13 13 N 7 11 29.53 1000 10 16.09344 0 0
4:53 pm 16:53 Sunny 108 42 43 6 11 11 N 5 7 29.5 999 10 16.09344 0 0
5:53 pm 17:53 Sunny 108 42 45 7 12 12 SSE 12 19 29.47 998 10 16.09344 0 0
6:53 pm 18:53 Sunny 106 41 43 6 12 12 W 13 20 29.47 998 10 16.09344 0 0
7:53 pm 19:53 Sunny 104 40 37 3 10 10 W 10 17 29.47 998 10 16.09344 0 0
8:53 pm 20:53 Clear 102 39 45 7 14 14 NNE 5 7 29.5 999 10 16.09344 0 0
9:53 pm 21:53 Clear 100 38 48 9 17 17 NNE 10 17 29.53 1000 10 16.09344 0 0
10:53 pm 22:53 Clear 99 37 50 10 19 19 NNW 7 11 29.53 1000 10 16.09344 0 0
11:53 pm 23:53 Clear 97 36 48 9 19 19 W 9 15 29.56 1001 10 16.09344 0 0

Powered by AerisWeather